Regional Weather Roundup
Issued by NWS Wakefield, VA

Home | Current Version | Previous Version | Text Only | Print | Product List | Glossary Off
Versions: 1 2 3 4 5 6 7 8 9 10 11 12 13 14 15 16 17 18 19 20 21 22 23 24 25 26 27

000
ASUS41 KAKQ 191915
RWRAKQ

REGIONAL WEATHER ROUNDUP
NATIONAL WEATHER SERVICE WAKEFIELD VA
300 PM EDT SAT MAY 19 2018

Note: "fair" indicates few or no clouds below 12,000 feet with no
significant weather and/or obstructions to visibility. * = Denotes
station may not report precipitation (e.g., rain,snow,etc.),
thunder or fog.

VAZ042-051-052>054-056-192000-
NORTHERN VIRGINIA

CITY           SKY/WX    TMP DP  RH WIND       PRES   REMARKS
WASH NATIONAL  CLOUDY    65  61  87 CALM      30.13F
DULLES         CLOUDY    61  59  93 CALM      30.13S
FORT BELVOIR   CLOUDY    64  62  92 SE3       30.13S
QUANTICO       LGT RAIN  65  63  93 SE3       30.14S
FREDERICKSBRG* LGT RAIN  67  67 100 CALM      30.12S
STAFFORD*      LGT RAIN  66  66 100 CALM      30.16F
WARRENTON      CLOUDY    63  58  83 CALM      30.12F
CULPEPER*      CLOUDY    63  59  88 CALM      30.14S
MANASSAS*      CLOUDY    62  59  90 CALM      30.13F
LEESBURG*      CLOUDY    55  55 100 CALM      30.14S
WINCHESTER     CLOUDY    57  54  88 SE5       30.13F
FRONT ROYAL*   CLOUDY    61  59  94 CALM      30.10F
LURAY*         MOCLDY    64  61  88 CALM      30.11F
$$

VAZ048-049-060>072-079>083-192000-
CENTRAL AND SOUTH CENTRAL VIRGINIA

CITY           SKY/WX    TMP DP  RH WIND       PRES   REMARKS
RICHMOND       LGT RAIN  72  70  93 S12       30.13S
CHESTERFIELD*  LGT RAIN  73  70  88 S7        30.13S
PETERSBURG*    LGT RAIN  72  70  92 CALM      30.13F
HANOVER        LGT RAIN  73  71  93 SW3       30.13S
TAPPAHANNOCK*  HVY RAIN  72  71  97 SW5       30.14S
QUINTON*       CLOUDY    74  74 100 S8        30.12S
CHARLOTTSVILLE CLOUDY    66  61  84 CALM      30.12F
GORDONSVILLE*  CLOUDY    63  63 100 CALM      30.12S
ORANGE*        CLOUDY    63  61  94 CALM      30.13S
LOUISA*        CLOUDY    66  64  95 S3        30.16F
BUMPASS*       CLOUDY    65  64  95 CALM      30.12F
FARMVILLE*     CLOUDY   N/A N/A N/A CALM      30.11F
CREWE*         CLOUDY    72  72 100 S7        30.12F
FORT PICKETT*  CLOUDY    72  72 100 S15       30.12F
CHASE CITY*    CLOUDY    71  71 100 SE6       30.12F
CLARKSVILLE*   CLOUDY    72  72 100 S3        30.11F
SOUTH HILL*    CLOUDY    70  70 100 S7        30.18F
LAWRENCEVILLE* CLOUDY    71  69  96 S6        30.13F
EMPORIA*         N/A     72  70  94 S6G18     30.16R
$$

VAZ088>098-192000-
SOUTHEAST VIRGINIA

CITY           SKY/WX    TMP DP  RH WIND       PRES   REMARKS
NORFOLK        PTSUNNY   77  73  87 CALM      30.13S
VIRGINIA BEACH PTSUNNY   82  68  62 S13G23    30.12F
NORFOLK NAVAL  TSTM      74  70  87 S8        30.15R FOG
WEST POINT*    CLOUDY    74  71  90 S3        30.14F
SALUDA*        MOCLDY    75  74  96 S7        30.13S
NEWPORT NEWS   FAIR      77  71  82 S7        30.14S
LANGLEY AFB    PTSUNNY   74  71  92 SW6       30.13F
FORT EUSTIS    FAIR      75  72  88 S3        30.11F
WILLIAMSBURG*  FAIR      77  72  83 CALM      30.15R
HR EXEC AP*    LGT RAIN  73  70  88 W7G20     30.14R FOG
FRANKLIN*      RAIN      75  74  96 SW3       30.14S
US460-WAKEFLD  LGT RAIN  75  72  90 VRB3      30.13F FOG
$$

VAZ020-022-025-037-045-192000-
WEST CENTRAL AND SOUTHWEST VIRGINIA

CITY           SKY/WX    TMP DP  RH WIND       PRES   REMARKS
STAUNTON*      PTSUNNY   66  61  83 SW3       30.13F
WAYNESBORO*    MOCLDY    66  64  91 E5        30.12F
HOT SPRINGS VA ICE FOG  -10 -10 100 SE8       30.17F VSB<1/4
LYNCHBURG      CLOUDY    66  64  93 N5        30.12F
DANVILLE       CLOUDY    73  71  93 VRB5      30.09F
SOUTH BOSTON*  CLOUDY    72  70  95 SE5       30.11S
MARTINSVILLE   CLOUDY    77  69  76 CALM      30.10F
ROANOKE        PTSUNNY   71  66  84 E12       30.11F
BLACKSBURG     PTSUNNY   75  68  78 E8        30.12F
DUBLIN*        CLOUDY    78  62  57 S10G22    30.10F
MARION*        CLOUDY    69  67  94 CALM      30.13S THUNDER
HILLSVILLE*    PTSUNNY   73  65  77 S9        30.12S
RICHLANDS*     MOCLDY    76  48  37 SW7       30.08F
WISE*          LGT RAIN  70  63  78 S7        30.09F
ABINGDON*      FAIR      80  67  66 W8        30.06F
$$

MDZ021>025-VAZ099-100-192000-
SOUTHERN MARYLAND AND THE DELMARVA PENINSULA

CITY           SKY/WX    TMP DP  RH WIND       PRES   REMARKS
PATUXENT RIVER RAIN      73  69  87 SW9       30.13F FOG
BAY BRIDGE APT CLOUDY    63  63 100 NW3       30.13R FOG
LEONARDTOWN    CLOUDY    68  68 100 CALM      30.16R
DOVER          LGT RAIN  68  66  94 E7        30.12F FOG
GEORGETOWN     CLOUDY    76  72  87 S10       30.12F
EASTON         HVY RAIN  72  68  88 SW8       30.17R
CAMBRIDGE      PTSUNNY   72  72 100 SW8       30.14S FOG
SALISBURY      CLOUDY    76  73  91 S10       30.13S
TANGIER        CLOUDY    72  72 100 SE8       30.14S
OCEAN CITY     LGT RAIN  67  66  97 SW12      30.16S
WALLOPS ISLAND PTSUNNY   75  70  84 S18       30.16S
ACCOMACK*      PTSUNNY   75  71  88 S9        30.15S
$$

NCZ012>017-030>032-192000-
NORTH CENTRAL AND EASTERN NORTH CAROLINA

CITY           SKY/WX    TMP DP  RH WIND       PRES   REMARKS
ROANOKE RAPIDS LGT RAIN  72  72 100 S8        30.14F
RALEIGH        LGT RAIN  72  72 100 S8        30.12F
ELIZABETH CITY FAIR      82  71  69 S15G26    30.14F
AHOSKIE*       LGT RAIN  70  70 100 S5        30.16R
EDENTON*       PTSUNNY   82  71  71 S14G20    30.15S
CURRITUCK*     NOT AVBL
KILL DEVIL HLS FAIR      80  70  71 S9G22     30.16S
MANTEO         PTSUNNY   78  71  78 S22G29    30.17F
CAPE HATTERAS  PTSUNNY   80  72  76 S13       30.19F
TARBORO*       NOT AVBL
GOLDSBORO      LGT RAIN  77  72  83 S9        30.14S
WASHINGTON     RAIN      72  70  92 W6        30.16S
GREENVILLE     LGT RAIN  72  72 100 S6        30.16F
NEW BERN       PTSUNNY   76  70  82 S13G22    30.17S
WILMINGTON     HVY RAIN  69  67  93 S16G25    30.16S VSB 1
$$

VAZ048-192000-
ELSEWHERE

CITY           SKY/WX    TMP DP  RH WIND       PRES   REMARKS
HARRISBURG PA  CLOUDY    58  55  90 SE8       30.12F
BALTIMORE      LGT RAIN  63  62  97 E5        30.12S FOG
ANNAPOLIS      CLOUDY    68  64  87 CALM      30.12S
ANDREWS AFB    CLOUDY    66  65  98 S5        30.12F
PHILADELPHIA   CLOUDY    59  58  96 NE7       30.15F
HENDERSON NC   DRIZZLE   69  68  95 S7        30.12F
GREENSBORO     PTSUNNY   78  69  73 S10       30.08F
ROCKY MOUNT    LGT RAIN  72  71  97 S7        30.14S
$$

VAZ100-192000-
MARINE

STATION/POSITION TIME  TEMP    WIND        PRES    WAVE   SWELL
                       AIR SEA DIR/SP/G            HT/PER HT/PER
                 (UTC) (F)     (DEG/KT/KT) (MB)    (FT/S) (FT/S)
BRANDYWINE LGT   1836   63     170/ 16/ 20 1020.5F
CAPE MAY NJ      1836   66 60  150/  7/ 11 1019.9F
LEWES DE         1836   75 60  180/  4/  7 1020.0F
15NM E FENWICK I 1850   54 55  170/ 12/ 16 1021.2F   5/ 8   3/ 8
OCEAN-CITY-INLET 1836   63 60  210/ 12/ 14 1021.6F
WACHAPREAGUE VA  1836   72 70  210/ 11/ 13 1021.1F
THOMAS POINT MD  1900   62 64   20/  4/  4 1021.1R
GOOSES REEF MD   1900   65 65  290/  2/  2 1020.5    1
COVE POINT MD    1836   69     200/ 13/ 15 1021.0F
SOLOMONS ISLAND  1836   69 67  200/ 10/ 14 1020.3R
BISHOPS HEAD MD  1836   70 70  220/ 10/ 12 1021.1R
PINEY POINT MD   1836          270/  4/  5   N/A
POTOMAC MD       1900   70 67  280/  6/  8 1019.9    1/ 2
CAMBRIDGE MD     1836   73 69              1021.4R
LEWISETTA VA     1836   74 70  280/ 11/ 14 1020.5R
RAPPAHANNOCK LGT 1836          160/  9/ 10 1021.3F
STINGRAY PT      1900   71 69  170/  8/ 10 1023.4    1
YORK RVR RNG VA  1836   73     210/  8/  9 1021.0F
YORKTOWN VA      1836   75 70  210/  6/  7 1019.9F
DOMINION TERM VA 1836   74     200/  2/  3 1020.6F
KIPTOPEKE VA     1836      68  200/  3/  5   N/A
CAPE HENRY VA    1836   74     160/  7/ 10   N/A
WILLOUBY STN VA  1836          280/  4/  5   N/A
S CRANEY ISL VA  1836   75      CALM  /  3 1020.2F
CAPE HENRY BUOY  1830      67                N/A     4/ 8   2/15
1ST LANDING BUOY 1900   72 69  100/  6/  8 1020.3    1/ 6
64NM E OF VA BCH 1850   66 63  180/  8/ 10 1022.5F   6/ 8   7/ 8
DUCK PIER NC     1836   79 63  190/ 18/ 22 1020.7F
44056 DUCK FRF   1900      64                N/A     4/ 8
OREGON INLET NC  1836   77 76  180/ 18/ 22 1021.9F
HATTERAS NC      1836   78 73  170/ 11/ 14 1022.1F
DIAMOND SHLS NC  1850   77 75  180/ 19/ 23 1022.7F   6/ 7   2/14
CAPE LOOKOUT NC  1800          170/ 15/ 17 1022.3F
$$




USA.gov is the U.S. government's official web portal to all federal, state and local government web resources and services.